Simultaneous Nadir Overpasses (SNOs) Predictions

Prediction of SNOs between GOES-14 and NPP Satellite Orbit:

Table of predicted SNOs for the next 14.0 days since TLE Epoch: 10/3/2025
Index Date Time (GOES-14) GOES-14 Lat,Lon NPP Lat,Lon Distance(km) Time Diff (sec)
1 10/04/2025 08:55:32 -0.76,-108.43 -0.08,-111.49 348.64 80
2 10/05/2025 08:34:10 -0.81,-108.43 -1.14,-106.97 166.50 80
3 10/06/2025 20:58:46 0.72,-108.41 -0.16,-112.25 438.44 80
4 10/07/2025 20:37:24 0.77,-108.42 0.91,-107.74 77.29 80
5 10/10/2025 08:43:09 -0.72,-108.45 -0.72,-108.47 2.24 80
6 10/12/2025 20:46:23 0.68,-108.41 0.53,-109.24 93.69 80
7 10/13/2025 20:25:00 0.74,-108.42 1.55,-104.71 421.46 80
8 10/15/2025 08:49:28 -0.65,-108.46 -0.30,-109.97 172.46 80
9 10/16/2025 08:28:06 -0.71,-108.46 -1.38,-105.45 342.24 80
